DW6758 Weather Reports


Display with metric or nautical units.
time (UTC)temp
F
wind
direction
speed
MPH
gust
MPH
rain 1hr
in
rain 24hr
in
rain mn
in
humidity
%
barometer
mb
20240523120014 69 142 0.0 0.0 0.00 0.00 0.00 10 1017.9
20240523114503 67 141 0.0 0.0 0.00 0.00 0.00 12 1017.6
20240523113002 66 141 0.0 0.0 0.00 0.00 0.00 13 1017.5
20240523111503 0 0.0 0.0 0.00 0.00 0.00 1017.3
20240523110058 0 0.0 0.0 0.00 0.00 0.00 1017.0
20240523104555 0 0.0 0.0 0.00 0.00 0.00 1016.9
20240523103048 0 0.0 0.0 0.00 0.00 0.00 1016.6
20240523101543 0 0.0 0.0 0.00 0.00 0.00 1016.6
20240523100045 0 0.0 0.0 0.00 0.00 0.00 1016.3
20240523094536 64 140 0.0 0.0 0.00 0.00 0.00 14 1016.4
20240523093039 65 142 0.0 0.0 0.00 0.00 0.00 14 1016.4
20240523091533 66 142 0.0 0.0 0.00 0.00 0.00 14 1016.5
20240523090032 66 142 0.0 0.0 0.00 0.00 0.00 14 1016.3
20240523084531 66 142 0.0 0.0 0.00 0.00 0.00 14 1016.4
20240523083033 66 142 0.0 0.0 0.00 0.00 0.00 14 1016.8
20240523081529 66 142 0.0 0.0 0.00 0.00 0.00 14 1016.8
20240523080029 67 142 0.0 0.0 0.00 0.00 0.00 14 1016.9
20240523074527 67 142 0.0 0.0 0.00 0.00 0.00 14 1016.9
20240523073029 67 142 0.0 0.0 0.00 0.00 0.00 14 1017.0
20240523071526 67 142 0.0 0.0 0.00 0.00 0.00 14 1016.9
20240523070025 67 142 0.0 0.0 0.00 0.00 0.00 14 1016.9
20240523064524 67 142 0.0 0.0 0.00 0.00 0.00 13 1016.7
20240523063027 67 142 0.0 0.0 0.00 0.00 0.00 14 1016.3
20240523061526 67 142 0.0 0.0 0.00 0.00 0.00 14 1016.6
20240523060016 67 142 0.0 0.0 0.00 0.00 0.00 15 1016.9
20240523054513 67 142 0.0 0.0 0.00 0.00 0.00 15 1017.4
20240523053016 67 142 0.0 0.0 0.00 0.00 0.00 16 1017.5
20240523051510 67 142 0.0 0.0 0.00 0.00 0.00 16 1017.8
20240523050010 66 142 0.0 0.0 0.00 0.00 0.00 17 1017.9
20240523044518 66 142 0.0 0.0 0.00 0.00 0.00 19 1017.9
20240523043014 66 142 0.0 0.0 0.00 0.00 0.00 20 1018.1
20240523041505 67 142 0.0 0.0 0.00 0.00 0.00 21 1018.0
20240523040002 67 142 0.0 0.0 0.00 0.00 0.00 22 1017.8
20240523034501 67 142 0.0 0.0 0.00 0.00 0.00 23 1017.9
20240523033001 68 142 0.0 0.0 0.00 0.00 0.00 24 1017.9
20240523031502 68 142 0.0 0.0 0.00 0.00 0.00 24 1017.9
20240523030114 68 142 0.0 0.0 0.00 0.00 0.00 27 1017.7
20240523024625 69 141 0.0 0.0 0.00 0.00 0.00 28 1017.5
20240523023100 69 142 0.0 0.0 0.00 0.00 0.00 31 1017.3
20240523021604 69 141 0.0 0.0 0.00 0.00 0.00 35 1017.4
20240523020058 69 142 0.0 0.0 0.00 0.00 0.00 40 1017.2
20240523014606 70 142 0.0 0.0 0.00 0.00 0.00 44 1017.1
20240523013057 71 141 0.0 0.0 0.00 0.00 0.00 46 1016.9
20240523011558 72 141 0.0 0.0 0.00 0.00 0.00 47 1017.2
20240523010056 72 142 0.0 0.0 0.00 0.00 0.00 48 1016.9
20240523004603 72 142 0.0 0.0 0.00 0.00 0.00 49 1016.7
20240523003058 72 142 0.0 0.0 0.00 0.00 0.00 52 1016.7
20240523001600 72 142 0.0 0.0 0.00 0.00 0.00 58 1016.5
20240523000054 73 141 0.0 0.0 0.00 0.00 0.00 62 1016.5
20240522234554 74 142 0.0 0.0 0.00 0.00 0.00 62 1016.5
20240522233054 76 142 0.0 0.0 0.00 0.00 0.00 62 1016.7
20240522231553 75 142 0.0 0.0 0.00 0.00 0.00 63 1016.6
20240522230100 75 49 0.0 0.0 0.00 0.00 0.00 64 1016.6
20240522224554 75 72 0.0 0.0 0.00 0.00 0.00 64 1016.5
20240522223058 76 105 0.0 0.0 0.00 0.00 0.00 65 1016.4
20240522221550 76 131 0.0 0.0 0.00 0.00 0.00 65 1016.4
20240522220048 76 19 0.0 0.0 0.00 0.00 0.00 64 1016.3
20240522214549 77 298 0.0 0.0 0.00 0.00 0.00 63 1016.2
20240522213047 77 40 0.0 0.0 0.00 0.00 0.00 61 1016.3
20240522211559 77 308 0.0 1.0 0.00 0.00 0.00 60 1016.5
20240522210046 78 89 0.0 0.0 0.00 0.00 0.00 61 1016.5
20240522204549 78 79 0.0 0.0 0.00 0.00 0.00 60 1016.4
20240522203045 78 238 0.0 0.0 0.00 0.00 0.00 58 1016.6
20240522201544 79 62 0.0 0.0 0.00 0.00 0.00 58 1016.9
20240522200044 80 292 0.0 0.0 0.00 0.00 0.00 57 1017.1
20240522194603 81 2 0.0 4.0 0.00 0.00 0.00 56 1017.2
20240522193043 82 142 0.0 0.0 0.00 0.00 0.00 54 1017.5
20240522191542 82 299 0.0 0.0 0.00 0.00 0.00 51 1017.8
20240522190042 82 89 0.0 1.0 0.00 0.00 0.00 52 1017.8
20240522184541 83 25 0.0 0.0 0.00 0.00 0.00 52 1018.1
20240522183040 84 99 0.0 0.0 0.00 0.00 0.00 52 1018.2
20240522181541 83 66 0.0 0.0 0.00 0.00 0.00 53 1018.1
20240522180057 84 96 0.0 0.0 0.00 0.00 0.00 55 1018.2
20240522174539 85 329 0.0 0.0 0.00 0.00 0.00 49 1018.5
20240522173039 84 81 0.0 0.0 0.00 0.00 0.00 52 1018.5
20240522171537 86 101 0.0 0.0 0.00 0.00 0.00 51 1018.6
20240522170036 84 79 0.0 0.0 0.00 0.00 0.00 55 1018.7
20240522164536 85 99 0.0 0.0 0.00 0.00 0.00 52 1018.8
20240522163035 86 49 0.0 0.0 0.00 0.00 0.00 47 1018.9
20240522161541 85 94 0.0 0.0 0.00 0.00 0.00 53 1018.6
20240522160033 85 157 0.0 0.0 0.00 0.00 0.00 53 1018.7
20240522154532 85 111 0.0 0.0 0.00 0.00 0.00 52 1018.9
20240522153032 84 84 0.0 0.0 0.00 0.00 0.00 57 1019.1
20240522151531 83 79 0.0 0.0 0.00 0.00 0.00 57 1019.0
20240522150031 84 153 0.0 0.0 0.00 0.00 0.00 57 1018.9
20240522144530 83 178 0.0 0.0 0.00 0.00 0.00 58 1019.1
20240522143033 83 165 0.0 0.0 0.00 0.00 0.00 56 1018.9
20240522141543 84 97 0.0 0.0 0.00 0.00 0.00 55 1018.8
20240522140025 83 127 0.0 0.0 0.00 0.00 0.00 50 1018.7
20240522134536 82 134 0.0 0.0 0.00 0.00 0.00 50 1018.7
20240522133020 80 141 0.0 0.0 0.00 0.00 0.00 54 1018.8
20240522131539 79 131 0.0 0.0 0.00 0.00 0.00 55 1018.7
20240522130014 76 122 0.0 0.0 0.00 0.00 0.00 49 1018.9
20240522124510 73 117 0.0 0.0 0.00 0.00 0.00 29 1019.2
20240522123008 70 117 0.0 0.0 0.00 0.00 0.00 12 1019.0
20240522121502 67 117 0.0 0.0 0.00 0.00 0.00 12 1018.9